Regional Weather Roundup
Issued by NWS

Home | Current Version | Previous Version | Text Only | Print | Product List | Glossary On
Versions: 1 2 3 4 5 6 7 8 9 10 11 12 13 14 15 16 17 18 19 20 21 22 23 24 25 26 27 28 29 30 31 32 33 34 35 36 37 38 39 40 41 42 43 44 45 46 47 48 49 50
000
ASUS45 KBOI 020510
RWRID

IDAHO REGIONAL WEATHER ROUNDUP
NATIONAL WEATHER SERVICE BOISE ID
1100 PM MDT WED JUL 01 2015

NOTE: "FAIR" INDICATES FEW OR NO CLOUDS BELOW 12000 FEET
WITH NO SIGNIFICANT WEATHER AND/OR OBSTRUCTIONS TO VISIBILITY

IDZ012-014-020600-
SOUTHWEST IDAHO


CITY           SKY/WX    TMP DP  RH WIND       PRES   REMARKS
BOISE          PTCLDY    88  37  16 N5        29.92R
CALDWELL       PTCLDY    81  54  39 CALM      29.91R
MOUNTAIN HOME  PTCLDY    83  38  20 W6        29.93R
$$

IDZ016-017-020600-
SOUTHCENTRAL IDAHO


CITY           SKY/WX    TMP DP  RH WIND       PRES   REMARKS
BURLEY         PTCLDY    74  55  51 SW9       29.99R
JEROME         MOCLDY    80  43  26 SW7       30.01R
TWIN FALLS     MOCLDY    83  41  22 SW13      30.00R
$$

IDZ019>023-020600-
SOUTHEAST IDAHO


CITY           SKY/WX    TMP DP  RH WIND       PRES   REMARKS
IDAHO FALLS    CLEAR     72  57  59 SE3       30.03R
POCATELLO      CLEAR     84  43  23 SW15      30.01R
REXBURG        PTCLDY    70  57  63 NE7       30.06R
$$

IDZ006-010-011-018-031-032-020600-
CENTRAL IDAHO MOUNTAINS


CITY           SKY/WX    TMP DP  RH WIND       PRES   REMARKS
MCCALL         CLEAR     75  45  34 N8        30.12R
HAILEY         PTCLDY    81  37  21 NW7       30.11R
STANLEY          N/A     60  32  34 S5        30.25R
SALMON         CLEAR     73  45  35 N5        30.04R
CHALLIS        PTCLDY    77  41  27 NW9       30.11R
$$

IDZ002-004-006-007-026-020600-
NORTHERN IDAHO


CITY           SKY/WX    TMP DP  RH WIND       PRES   REMARKS
LEWISTON       CLEAR     86  45  23 S3        29.91R
LOWELL           N/A     72  56  57 N5        29.95R
COEUR D`ALENE  CLEAR     75  52  43 NE8       29.97R
MULLAN PASS    CLEAR     69  37  30 VRB3      30.25R
$$



USA.gov is the U.S. government's official web portal to all federal, state and local government web resources and services.